Карточка аэропорта UMMS

Внимание!
Информация на этой странице в стадии наполнения.
Если вы не увидели какой-то информации, или заметили неточность - пожалуйста сообщите нам!
Спасибо!
Команда RU-STAFF
Название аэропортаMinsk 2
Название аэропорта (англ.)Minsk 2
Превышение681 ft. (207.6 m.)
Координаты53°52.95', 28°1.848'
Высота перехода6000 ft
Эшелон переходаFL80; QNH<977hPa - FL90
Коды ответчика0020−0027; 6230-6277
Зона ОрВДМинск РПИ (UMMV)
Данные METARUMMS 082200Z 14003MPS 4300 -SN BR BKN003 OVC027 M02/M03 Q1013 NOSIG RMK QBB090
Проноз погоды (TAF)UMMS 082148Z 0822/0918 17006MPS 3000 -SN BR BKN003 TEMPO 0822/0908 0300 -FZDZ SHSN FZFG OVC002 BKN012CB TEMPO 0908/0918 19005G10MPS 1200 SHSN BR FEW002 OVC004 BKN010CB
NOTAMshow/hide NOTAM
AWOS   TABLE

Информация о ВПП

ВПП Длина ВПП (м.) Покрытие Курс ВПП Частота ILS
13L3700Цементобетон130110.7
31R3700Цементобетон310110.1

Диспетчерские позиции

Позывной Наименование органа УВД Частота
UMMS_APPMinsk Approach125.900
UMMS_R_APPMinsk Radar125.250
UMMS_TWRMinsk Tower130.400
UMMS_GNDMinsk Ground129.950



Спутниковое изображение